sat.trackr.live / text

‹ back to catalog

WILDFIRE 4

NORAD 57756 · 2023-133A

PAYLOAD ACTIVE UNKNOWN

§ Identity

Operator
Country
US
Launch date
2023-09-02
Launch site
AFWTR
Launch vehicle
Mass (kg)
RCS (m²)

External: N2YO · Heavens-Above · Gunter

§ Orbital elements

Epoch: 2026-09-21T18:38:05.291232Z

Period
103.87 min
Inclination
80.9982°
Eccentricity
0.0011059
Mean motion
13.86373549 rev/d
Perigee alt
933.3 km
Apogee alt
949.5 km
Semi-major
7,319.5 km
B*
4.7508e-5
RAAN
273.3104°
Arg perigee
94.3950°
Mean anomaly
265.8471°
Rev number
15,450

§ Raw data

WILDFIRE 41 57756U 23133A   26264.77645013  .00000066  00000+0  47508-4 0  99942 57756  80.9982 273.3104 0011059  94.3950 265.8471 13.86373549154501

JSON: /api/v1/satellites/57756 · /tle

For live sub-satellite position, see the globe view (requires WebGL).

§ Visibility from observer

Set your observer location to see the next 7 days of passes ≥ 10°. The values pass through the URL so the page stays shareable.

No JS? Fill the form by hand. The geolocation button needs JavaScript.